Regional Weather Roundup
Issued by NWS

Home | Current Version | Previous Version | Text Only | Print | Product List | Glossary On
Versions: 1 2 3 4 5 6 7 8 9 10 11 12 13 14 15 16 17 18 19 20 21 22 23 24 25 26 27 28 29 30 31 32 33 34 35 36 37 38 39 40 41 42 43 44 45 46 47 48 49
000
ASUS45 KSLC 281310
RWRUT

UTAH REGIONAL WEATHER ROUNDUP
NATIONAL WEATHER SERVICE SALT LAKE CITY UT
700 AM MDT TUE JUL 28 2015

UTZ001>011-023>025-281400-

NORTHERN UTAH

CITY           SKY/WX    TMP DP  RH WIND       PRES   REMARKS
BRIGHAM CITY   CLEAR     50  36  59 N5        30.26R
HILL AFB       CLEAR     52  35  53 SE12      30.26R
LOGAN            N/A    N/A N/A N/A MISG      30.27R
OGDEN          CLEAR     51  35  54 N5        30.25R
PROVO AIRPORT  CLEAR     52  36  54 VRB5      30.26R
SALT LAKE CITY CLEAR     56  39  53 W3        30.24R
VERNAL         CLEAR     52  36  54 W6        30.22R
WENDOVER       CLEAR     57  28  33 CALM      30.27R
HEBER CITY     CLEAR     43  36  75 CALM      30.30R
WEST JORDAN    CLEAR     55  28  35 W3        30.27R

$$

UTZ012>022-026-027-281400-

SOUTHERN/CENTRAL UTAH

CITY           SKY/WX    TMP DP  RH WIND       PRES   REMARKS
BLANDING       CLEAR     55  30  37 NE7       30.23S
BRYCE CANYON   PTCLDY    41  30  65 NW3       30.33R
CEDAR CITY     CLEAR     49  30  48 CALM      30.23R
DELTA          CLEAR     55  32  41 N9        30.24R
HANKSVILLE     CLEAR     55  34  44 CALM      30.15R
MILFORD        CLEAR     55  34  45 N13       30.22R
MOAB/CYNLANDS  CLEAR     65  34  31 W5        30.11R
PRICE          CLEAR     62  30  29 N9G18     30.21R
ST GEORGE      SUNNY     75  36  23 CALM      30.03R

$$

REGIONAL REPORTS     COLORADO/ARIZONA

CITY           SKY/WX    TMP DP  RH WIND       PRES   REMARKS
CRAIG, CO      CLEAR     44  37  76 CALM      30.30R
GRAND JUNCTION CLEAR     60  31  33 CALM      30.14R
RIFLE          CLEAR     53  35  50 CALM      30.22R
MONTROSE       CLEAR     56  35  45 S8        30.22R
CORTEZ         CLEAR     50  35  56 E6        30.19R
PAGE, AZ       CLEAR     73  30  20 W5        30.08R
GRAND CANYON   PTCLDY    39  22  50 CALM      30.26R
KINGMAN        CLEAR     71  25  17 SE12      30.01R
FLAGSTAFF      PTCLDY    49  37  63 CALM      30.28R

$$

REGIONAL REPORTS    NEVADA/IDAHO/WYOMING

CITY           SKY/WX    TMP DP  RH WIND       PRES   REMARKS
LAS VEGAS, NV  CLEAR     79  29  16 NW6       29.88R
ELY            CLEAR     48  23  37 NE6       30.30R
ELKO           CLEAR     40  29  64 CALM      30.28R
POCATELLO, ID  PTCLDY    39  39 100 CALM      30.28R
BURLEY         CLEAR     43  37  79 CALM      30.26R
EVANSTON, WY   CLEAR     40  30  67 SW5       30.33R
ROCK SPRINGS   CLEAR     47  23  38 W10       30.29R
KEMMERER       PTCLDY    37  28  70 N7        30.33R WCI  32

$$


USA.gov is the U.S. government's official web portal to all federal, state and local government web resources and services.